Weather History for Duncan, OK

Change the Weather History Date:

Tuesday, December 3, 2013

  Actual Average (KLAW) Record (KLAW)
Temperature  
Mean Temperature 54 °F -  
Max Temperature 68 °F 55 °F 82 °F (2012)
Min Temperature 39 °F 29 °F 11 °F (1985)
Degree Days  
Heating Degree Days 12    
Growing Degree Days 4 (Base 50)    
Moisture  
Dew Point 41 °F    
Average Humidity 73    
Maximum Humidity 100    
Minimum Humidity 33    
Precipitation  
Precipitation 0.00 in - - ()
Sea Level Pressure  
Sea Level Pressure 29.55 in    
Wind  
Wind Speed 1 mph (SSW)    
Max Wind Speed 12 mph    
Max Gust Speed -    
Visibility 9 miles    
Events      
Averages and records for this station are not official NWS values.
T = Trace of Precipitation, MM = Missing Value Source: NWS Daily Summary

Daily Weather History Graph

Daily Weather History Graph

Search for Another Location

Airport:

Trip Planner

Search our weather history database for the weather conditions in past years. The results will help you decide how hot, cold, wet, or windy it might be!

Date:

Astronomy

Dec. 03, 2013 Rise Set
Actual Time 7:22 AM CST 5:21 PM CST
Civil Twilight 6:54 AM CST 5:48 PM CST
Nautical Twilight 6:23 AM CST 6:20 PM CST
Astronomical Twilight 5:52 AM CST 6:50 PM CST
Moon 7:53 AM CST (12/3) 6:25 PM CST (12/3)
Length of Visible Light 10h 54m
Length of Day
9h 59m
New Moon, 1% of the Moon is Illuminated
Dec 3
New Moon
Dec 9
First Quarter
Dec 17
Full
Dec 25
Last Quarter
Jan 1
New

Hourly Weather History & Observations

Time (CST) Temp. Dew Point Humidity Pressure Visibility Wind Dir Wind Speed Gust Speed Precip Events Conditions
12:15 AM 42.8 °F 42.8 °F 100% 29.63 in 10.0 mi Calm Calm - N/A   Clear
12:35 AM 42.8 °F 42.8 °F 100% 29.63 in 10.0 mi Calm Calm - N/A   Clear
12:55 AM 42.8 °F 42.8 °F 100% 29.63 in 10.0 mi Calm Calm - N/A   Clear
1:15 AM 42.8 °F 42.8 °F 100% 29.61 in 10.0 mi Calm Calm - N/A   Clear
1:35 AM 42.8 °F 42.8 °F 100% 29.61 in 7.0 mi Calm Calm - N/A   Clear
1:55 AM 42.8 °F 42.8 °F 100% 29.62 in 10.0 mi Calm Calm - N/A   Clear
2:15 AM 42.8 °F 42.8 °F 100% 29.61 in 7.0 mi Calm Calm - N/A   Clear
2:35 AM 42.8 °F 42.8 °F 100% 29.59 in 7.0 mi Calm Calm - N/A   Clear
2:55 AM 42.8 °F 42.8 °F 100% 29.59 in 2.5 mi Calm Calm - N/A   Clear
3:15 AM 42.8 °F 42.8 °F 100% 29.58 in 5.0 mi Calm Calm - N/A   Clear
3:35 AM 42.8 °F 42.8 °F 100% 29.58 in 5.0 mi Calm Calm - N/A   Clear
3:55 AM 42.8 °F 42.8 °F 100% 29.57 in 5.0 mi Calm Calm - N/A   Clear
4:15 AM 41.0 °F 41.0 °F 100% 29.57 in 5.0 mi Calm Calm - N/A   Clear
4:35 AM 41.0 °F 41.0 °F 100% 29.57 in 7.0 mi Calm Calm - N/A   Clear
4:55 AM 41.0 °F 41.0 °F 100% 29.57 in 7.0 mi Calm Calm - N/A   Clear
5:15 AM 41.0 °F 41.0 °F 100% 29.57 in 7.0 mi Calm Calm - N/A   Clear
5:35 AM 41.0 °F 41.0 °F 100% 29.56 in 7.0 mi Calm Calm - N/A   Clear
5:55 AM 39.2 °F 39.2 °F 100% 29.56 in 7.0 mi Calm Calm - N/A   Clear
6:15 AM 39.2 °F 39.2 °F 100% 29.54 in 7.0 mi Calm Calm - N/A   Clear
6:35 AM 39.2 °F 39.2 °F 100% 29.55 in 10.0 mi Calm Calm - N/A   Clear
6:55 AM 39.2 °F 39.2 °F 100% 29.55 in 10.0 mi Calm Calm - N/A   Clear
7:15 AM 39.2 °F 39.2 °F 100% 29.56 in 10.0 mi Calm Calm - N/A   Clear
7:35 AM 39.2 °F 39.2 °F 100% 29.55 in 7.0 mi Calm Calm - N/A   Clear
7:55 AM 41.0 °F 41.0 °F 100% 29.55 in 5.0 mi Calm Calm - N/A   Clear
8:15 AM 42.8 °F 42.8 °F 100% 29.55 in 7.0 mi Calm Calm - N/A   Clear
8:35 AM 42.8 °F 42.8 °F 100% 29.55 in 7.0 mi Calm Calm - N/A   Clear
8:55 AM 46.4 °F 46.4 °F 100% 29.55 in 10.0 mi Calm Calm - N/A   Clear
9:15 AM 48.2 °F 48.2 °F 100% 29.56 in 10.0 mi SSE 9.2 mph - N/A   Clear
9:35 AM 50.0 °F 46.4 °F 87% 29.56 in 10.0 mi South 11.5 mph - N/A   Clear
9:55 AM 50.0 °F 46.4 °F 87% 29.57 in 10.0 mi South 6.9 mph - N/A   Clear
10:15 AM 51.8 °F 46.4 °F 82% 29.57 in 10.0 mi Calm Calm - N/A   Clear
10:35 AM 53.6 °F 46.4 °F 77% 29.57 in 10.0 mi Calm Calm - N/A   Clear
10:55 AM 53.6 °F 44.6 °F 72% 29.58 in 10.0 mi Calm Calm - N/A   Clear
11:15 AM 55.4 °F 42.8 °F 63% 29.58 in 10.0 mi Calm Calm - N/A   Clear
11:35 AM 59.0 °F 42.8 °F 55% 29.56 in 10.0 mi Calm Calm - N/A   Clear
11:55 AM 59.0 °F 41.0 °F 51% 29.55 in 10.0 mi Calm Calm - N/A   Clear
12:15 PM 60.8 °F 41.0 °F 48% 29.54 in 10.0 mi Calm Calm - N/A   Clear
12:35 PM 60.8 °F 41.0 °F 48% 29.53 in 10.0 mi South 6.9 mph - N/A   Clear
12:55 PM 62.6 °F 41.0 °F 45% 29.52 in 10.0 mi Calm Calm - N/A   Clear
1:15 PM 62.6 °F 39.2 °F 42% 29.53 in 10.0 mi Calm Calm - N/A   Clear
1:35 PM 64.4 °F 39.2 °F 40% 29.51 in 10.0 mi Calm Calm - N/A   Clear
1:55 PM 64.4 °F 37.4 °F 37% 29.50 in 10.0 mi Calm Calm - N/A   Clear
2:15 PM 64.4 °F 37.4 °F 37% 29.50 in 10.0 mi WSW 5.8 mph - N/A   Clear
2:35 PM 64.4 °F 37.4 °F 37% 29.50 in 10.0 mi SW 10.4 mph - N/A   Clear
2:55 PM 64.4 °F 37.4 °F 37% 29.50 in 10.0 mi Calm Calm - N/A   Clear
3:15 PM 66.2 °F 37.4 °F 35% 29.50 in 10.0 mi SSW 6.9 mph - N/A   Clear
3:35 PM 66.2 °F 37.4 °F 35% 29.50 in 10.0 mi WSW 6.9 mph - N/A   Clear
3:55 PM 66.2 °F 37.4 °F 35% 29.51 in 10.0 mi Calm Calm - N/A   Clear
4:15 PM 68.0 °F 37.4 °F 33% 29.52 in 10.0 mi Calm Calm - N/A   Clear
4:35 PM 66.2 °F 37.4 °F 35% 29.51 in 10.0 mi Calm Calm - N/A   Clear
4:55 PM 66.2 °F 37.4 °F 35% 29.51 in 10.0 mi Calm Calm - N/A   Clear
5:15 PM 62.6 °F 37.4 °F 39% 29.51 in 10.0 mi Calm Calm - N/A   Clear
5:35 PM 59.0 °F 37.4 °F 45% 29.52 in 10.0 mi Calm Calm - N/A   Clear
5:55 PM 60.8 °F 37.4 °F 42% 29.52 in 10.0 mi Calm Calm - N/A   Clear
6:15 PM 60.8 °F 37.4 °F 42% 29.53 in 10.0 mi Calm Calm - N/A   Clear
6:35 PM 57.2 °F 37.4 °F 48% 29.54 in 10.0 mi Calm Calm - N/A   Clear
6:55 PM 55.4 °F 37.4 °F 51% 29.54 in 10.0 mi Calm Calm - N/A   Clear
7:15 PM 53.6 °F 37.4 °F 54% 29.54 in 10.0 mi Calm Calm - N/A   Clear
7:35 PM 51.8 °F 37.4 °F 58% 29.55 in 10.0 mi Calm Calm - N/A   Clear
7:55 PM 51.8 °F 37.4 °F 58% 29.54 in 10.0 mi East 3.5 mph - N/A   Clear
8:15 PM 50.0 °F 39.2 °F 66% 29.55 in 10.0 mi Calm Calm - N/A   Clear
8:35 PM 50.0 °F 39.2 °F 66% 29.54 in 10.0 mi Calm Calm - N/A   Clear
8:55 PM 50.0 °F 37.4 °F 62% 29.54 in 10.0 mi Calm Calm - N/A   Clear
9:15 PM 50.0 °F 37.4 °F 62% 29.54 in 10.0 mi Calm Calm - N/A   Clear
9:35 PM 50.0 °F 39.2 °F 66% 29.54 in 10.0 mi Calm Calm - N/A   Clear
9:55 PM 50.0 °F 41.0 °F 71% 29.54 in 10.0 mi Calm Calm - N/A   Clear
10:15 PM 46.4 °F 41.0 °F 81% 29.55 in 10.0 mi Calm Calm - N/A   Clear
10:35 PM 50.0 °F 41.0 °F 71% 29.54 in 10.0 mi Calm Calm - N/A   Clear
10:55 PM 46.4 °F 41.0 °F 81% 29.54 in 10.0 mi Calm Calm - N/A   Clear
11:15 PM 46.4 °F 41.0 °F 81% 29.54 in 10.0 mi Calm Calm - N/A   Clear
11:35 PM 48.2 °F 41.0 °F 76% 29.54 in 10.0 mi Calm Calm - N/A   Clear
11:55 PM 46.4 °F 41.0 °F 81% 29.54 in 10.0 mi Calm Calm - N/A   Clear